Location: Newark
(9.4667°S, 159.8167°E)
Time: 18:39:21
(UTC+00:00)

Altair - Visible Passes

Search period start: 17 November 2019 00:00
Search period end: 27 November 2019 00:00
Orbit: 1502 x 1682 km, 47.2° (Epoch: 17 November)

Date Brightness Start Highest point End Pass type
(mag) Time Alt. Az. Time Alt. Az. Time Alt. Az.
17 Nov 9.5 10:13:29 10° SSE 10:15:30 11° SSE 10:16:49 10° SE visible
17 Nov 9.4 12:12:31 10° SSW 12:14:49 19° SSW 12:14:49 19° SSW visible
18 Nov 9.1 11:47:27 10° SSW 11:50:48 23° SSW 11:50:48 23° SSW visible
19 Nov 8.9 11:22:23 10° SSW 11:26:48 27° S 11:26:48 27° S visible
20 Nov 8.7 10:57:22 10° SSW 11:02:52 30° S 11:02:52 30° S visible
21 Nov 8.6 10:32:21 10° SSW 10:38:58 32° SSE 10:38:58 32° SSE visible
21 Nov 9.7 12:36:27 10° SW 12:36:59 12° SW 12:36:59 12° SW visible
22 Nov 8.5 10:07:21 10° SSW 10:15:06 31° SE 10:15:06 31° SE visible
22 Nov 9.4 12:11:07 10° SW 12:13:07 18° SW 12:13:07 18° SW visible
23 Nov 8.6 09:42:24 10° SSW 09:50:29 28° SE 09:51:17 27° SE visible
23 Nov 9.0 11:45:49 10° SW 11:49:19 25° SW 11:49:19 25° SW visible
24 Nov 8.7 09:17:28 10° S 09:25:11 25° SE 09:27:31 23° ESE visible
24 Nov 8.6 11:20:33 10° SW 11:25:32 35° SW 11:25:32 35° SW visible
25 Nov 8.8 08:52:34 10° S 08:59:52 22° SE 09:03:47 18° ESE visible
25 Nov 8.2 10:55:19 10° SW 11:01:49 47° SW 11:01:49 47° SW visible
26 Nov 9.0 08:27:42 10° S 08:34:32 20° SE 08:40:06 12° ESE visible
26 Nov 7.7 10:30:06 10° SW 10:38:08 64° SW 10:38:08 64° SW visible
